• In Netherlands
  • List of Countries
  • For 7 days
  • Water Temperature
  • Satellite Maps
  • Weather Map
  • Weather Widgets
  • user-avatar
    Login

    Hourly Weather Belize

    Today, 22 January, Sunday

    Time Temperature Precipitation Wind Pressure Humidity
    00:00 +22°C° 0 mm 3 mps 756 mmHg 89%
    01:00 +22°C° 0 mm 3 mps 756 mmHg 91%
    02:00 +23°C° 0 mm 2 mps 756 mmHg 93%
    03:00 +21°C° 0 mm 2 mps 756 mmHg 94%
    04:00 +21°C° 0 mm 2 mps 756 mmHg 94%
    05:00 +21°C° 0 mm 1 mps 756 mmHg 94%
    06:00 +21°C° 0 mm 1 mps 756 mmHg 94%
    07:00 +24°C° 0 mm 1 mps 756 mmHg 82%
    08:00 +27°C° 0 mm 2 mps 757 mmHg 69%
    09:00 +30°C° 0 mm 2 mps 757 mmHg 57%
    10:00 +34°C° 0 mm 2 mps 757 mmHg 49%
    11:00 +36°C° 0 mm 2 mps 757 mmHg 41%
    12:00 +39°C° 0 mm 2 mps 757 mmHg 33%
    13:00 +39°C° 0 mm 2 mps 756 mmHg 33%
    14:00 +38°C° 0 mm 3 mps 756 mmHg 33%
    15:00 +38°C° 0 mm 3 mps 755 mmHg 32%
    16:00 +35°C° 0 mm 3 mps 755 mmHg 47%
    17:00 +30°C° 0 mm 3 mps 755 mmHg 61%
    18:00 +27°C° 0 mm 3 mps 755 mmHg 76%
    19:00 +26°C° 0 mm 3 mps 756 mmHg 80%
    20:00 +25°C° 0 mm 3 mps 757 mmHg 84%
    21:00 +24°C° 0 mm 3 mps 757 mmHg 88%
    22:00 +24°C° 0 mm 3 mps 758 mmHg 82%
    23:00 +25°C° 0 mm 4 mps 758 mmHg 76%

    Tomorrow, 23 January, Monday

    Time Temperature Precipitation Wind Pressure Humidity
    00:00 +26°C° 0 mm 4 mps 759 mmHg 69%
    01:00 +25°C° 0 mm 5 mps 759 mmHg 73%
    02:00 +25°C° 0 mm 5 mps 759 mmHg 76%
    03:00 +23°C° 0 mm 5 mps 759 mmHg 79%
    04:00 +23°C° 0 mm 5 mps 759 mmHg 84%
    05:00 +23°C° 0 mm 6 mps 760 mmHg 88%
    06:00 +22°C° 0 mm 6 mps 760 mmHg 92%
    07:00 +23°C° 0 mm 6 mps 761 mmHg 81%
    08:00 +24°C° 0 mm 6 mps 762 mmHg 69%
    09:00 +26°C° 0 mm 6 mps 763 mmHg 58%
    10:00 +28°C° 0 mm 5 mps 763 mmHg 52%
    11:00 +29°C° 0 mm 5 mps 762 mmHg 45%
    12:00 +30°C° 0 mm 4 mps 762 mmHg 39%
    13:00 +32°C° 0 mm 4 mps 761 mmHg 37%
    14:00 +33°C° 0 mm 3 mps 760 mmHg 34%
    15:00 +32°C° 0 mm 2 mps 759 mmHg 32%
    16:00 +29°C° 0 mm 2 mps 760 mmHg 45%
    17:00 +25°C° 0 mm 2 mps 760 mmHg 58%
    18:00 +21°C° 0 mm 1 mps 760 mmHg 71%
    19:00 +21°C° 0 mm 1 mps 760 mmHg 74%
    20:00 +20°C° 0 mm 1 mps 761 mmHg 77%
    21:00 +20°C° 0 mm 1 mps 762 mmHg 80%
    22:00 +19°C° 0 mm 2 mps 762 mmHg 76%
    23:00 +19°C° 0 mm 3 mps 762 mmHg 73%

    Day after tomorrow, 24 January, Tuesday

    Time Temperature Precipitation Wind Pressure Humidity
    00:00 +19°C° 0 mm 4 mps 761 mmHg 69%
    01:00 +18°C° 0 mm 4 mps 761 mmHg 73%
    02:00 +18°C° 0 mm 4 mps 761 mmHg 76%
    03:00 +17°C° 0 mm 4 mps 761 mmHg 79%
    04:00 +15°C° 0 mm 4 mps 761 mmHg 84%
    05:00 +16°C° 0 mm 3 mps 761 mmHg 88%
    06:00 +14°C° 0 mm 3 mps 761 mmHg 93%
    07:00 +18°C° 0 mm 2 mps 762 mmHg 82%
    08:00 +21°C° 0 mm 2 mps 762 mmHg 71%
    09:00 +25°C° 0 mm 2 mps 763 mmHg 59%
    10:00 +27°C° 0 mm 2 mps 762 mmHg 54%
    11:00 +28°C° 0 mm 2 mps 762 mmHg 49%
    12:00 +30°C° 0 mm 2 mps 761 mmHg 43%
    13:00 +30°C° 0 mm 2 mps 760 mmHg 45%
    14:00 +30°C° 0 mm 2 mps 760 mmHg 46%
    15:00 +30°C° 0 mm 3 mps 759 mmHg 48%
    16:00 +28°C° 0 mm 3 mps 759 mmHg 60%
    17:00 +26°C° 0 mm 3 mps 759 mmHg 71%
    18:00 +22°C° 0 mm 3 mps 759 mmHg 83%
    19:00 +21°C° 0 mm 3 mps 760 mmHg 88%
    20:00 +20°C° 0 mm 4 mps 760 mmHg 92%
    21:00 +19°C° 0 mm 4 mps 761 mmHg 97%
    22:00 +20°C° 0 mm 4 mps 761 mmHg 98%
    23:00 +20°C° 0 mm 4 mps 760 mmHg 98%

    25 January, Wednesday

    Time Temperature Precipitation Wind Pressure Humidity
    00:00 +20°C° 0 mm 4 mps 760 mmHg 98%
    01:00 +20°C° 0 mm 4 mps 760 mmHg 98%
    02:00 +20°C° 0 mm 4 mps 759 mmHg 97%
    03:00 +20°C° 0 mm 4 mps 759 mmHg 97%
    04:00 +21°C° 0 mm 4 mps 759 mmHg 97%
    05:00 +21°C° 0 mm 4 mps 759 mmHg 97%
    06:00 +21°C° 0 mm 4 mps 760 mmHg 96%
    07:00 +23°C° 0 mm 4 mps 760 mmHg 88%
    08:00 +26°C° 0 mm 5 mps 761 mmHg 79%
    09:00 +28°C° 0 mm 5 mps 761 mmHg 70%
    10:00 +29°C° 0 mm 5 mps 761 mmHg 66%
    11:00 +30°C° 0 mm 5 mps 761 mmHg 62%
    12:00 +32°C° 0 mm 5 mps 760 mmHg 58%
    13:00 +32°C° 0 mm 4 mps 760 mmHg 59%
    14:00 +32°C° 0 mm 4 mps 759 mmHg 60%
    15:00 +30°C° 0 mm 4 mps 758 mmHg 61%
    16:00 +28°C° 0 mm 4 mps 759 mmHg 70%
    17:00 +26°C° 0 mm 4 mps 759 mmHg 79%
    18:00 +23°C° 0 mm 4 mps 759 mmHg 88%
    19:00 +22°C° 0 mm 4 mps 760 mmHg 91%
    20:00 +21°C° 0 mm 4 mps 760 mmHg 95%
    21:00 +20°C° 0 mm 4 mps 761 mmHg 98%
    22:00 +20°C° 0 mm 4 mps 760 mmHg 98%
    23:00 +20°C° 0 mm 4 mps 760 mmHg 98%

    26 January, Thursday

    Time Temperature Precipitation Wind Pressure Humidity
    00:00 +20°C° 0 mm 4 mps 760 mmHg 99%
    01:00 +20°C° 0 mm 4 mps 760 mmHg 99%
    02:00 +20°C° 0 mm 3 mps 760 mmHg 98%
    03:00 +19°C° 0 mm 3 mps 760 mmHg 98%
    04:00 +19°C° 0 mm 3 mps 760 mmHg 99%
    05:00 +18°C° 0 mm 3 mps 760 mmHg 99%
    06:00 +18°C° 0 mm 3 mps 761 mmHg 99%
    07:00 +21°C° 0 mm 3 mps 761 mmHg 89%
    08:00 +25°C° 0 mm 3 mps 762 mmHg 79%
    09:00 +28°C° 0 mm 3 mps 763 mmHg 69%
    10:00 +29°C° 0 mm 3 mps 762 mmHg 64%
    11:00 +30°C° 0 mm 3 mps 762 mmHg 60%
    12:00 +31°C° 0 mm 3 mps 762 mmHg 55%
    13:00 +31°C° 0 mm 3 mps 761 mmHg 55%
    14:00 +31°C° 0 mm 3 mps 761 mmHg 55%
    15:00 +31°C° 0 mm 3 mps 760 mmHg 54%
    16:00 +29°C° 0 mm 3 mps 761 mmHg 66%
    17:00 +26°C° 0 mm 2 mps 761 mmHg 77%
    18:00 +24°C° 0 mm 2 mps 761 mmHg 88%
    19:00 +23°C° 0 mm 2 mps 762 mmHg 91%
    20:00 +21°C° 0 mm 2 mps 762 mmHg 95%
    21:00 +19°C° 0 mm 2 mps 763 mmHg 98%
    22:00 +19°C° 0 mm 2 mps 763 mmHg 98%
    23:00 +19°C° 0 mm 2 mps 763 mmHg 98%

    27 January, Friday

    Time Temperature Precipitation Wind Pressure Humidity
    00:00 +19°C° 0 mm 2 mps 763 mmHg 98%
    01:00 +19°C° 0 mm 2 mps 763 mmHg 99%
    02:00 +18°C° 0 mm 2 mps 762 mmHg 99%
    03:00 +17°C° 0 mm 2 mps 762 mmHg 99%
    04:00 +18°C° 0 mm 2 mps 763 mmHg 99%
    05:00 +19°C° 0 mm 2 mps 763 mmHg 99%
    06:00 +21°C° 0 mm 1 mps 763 mmHg 99%
    07:00 +23°C° 0 mm 2 mps 764 mmHg 91%
    08:00 +25°C° 0 mm 2 mps 764 mmHg 83%
    09:00 +26°C° 0 mm 2 mps 765 mmHg 74%
    10:00 +28°C° 0 mm 2 mps 764 mmHg 65%
    11:00 +30°C° 0 mm 2 mps 764 mmHg 56%
    12:00 +32°C° 0 mm 2 mps 763 mmHg 46%
    13:00 +32°C° 0 mm 2 mps 763 mmHg 47%
    14:00 +33°C° 0 mm 3 mps 762 mmHg 47%
    15:00 +33°C° 0 mm 3 mps 761 mmHg 48%
    16:00 +30°C° 0 mm 3 mps 762 mmHg 59%
    17:00 +27°C° 0 mm 3 mps 762 mmHg 71%
    18:00 +25°C° 0 mm 3 mps 762 mmHg 82%
    19:00 +24°C° 0 mm 3 mps 763 mmHg 87%
    20:00 +22°C° 0 mm 3 mps 763 mmHg 92%
    21:00 +20°C° 0 mm 3 mps 763 mmHg 97%
    22:00 +20°C° 0 mm 3 mps 763 mmHg 98%
    23:00 +20°C° 0 mm 3 mps 763 mmHg 98%
    Show more